Theta_e
305 306 305 304 303 303 303 304 303 303 303 304 306 308 308 307 308 308 308 308 307 307 305 305 305 303 301 305 312 317 320 336 336 335 333 332 331 331 331 330 330 330 328 326
306 306 304 303 303 304 304 304 305 303 304 304 305 307 308 307 306 306 306 307 306 306 306 304 304 305 299 300 302 307 315 321 330 334 333 332 332 331 330 330 330 329 329 327
306 304 304 304 305 305 305 305 305 304 305 304 303 305 309 307 305 304 304 304 305 305 305 304 303 303 303 298 299 302 308 314 324 334 333 332 331 332 330 330 330 330 330 329
305 304 304 305 305 305 305 304 304 305 305 305 302 303 308 307 306 304 303 302 303 304 304 303 302 302 302 301 297 301 305 310 322 329 334 332 331 331 331 331 330 329 330 330
306 305 304 305 304 304 305 304 304 304 305 305 305 305 305 304 305 304 302 301 301 302 303 303 302 301 300 301 299 298 302 306 315 328 333 332 331 331 332 331 329 329 331 331
305 304 302 302 303 303 303 304 305 304 305 306 305 304 305 307 302 302 301 300 300 300 301 301 301 301 300 300 300 298 299 302 305 317 330 331 330 330 330 330 329 330 330 330
305 303 302 301 303 303 303 305 306 306 306 305 303 302 306 301 299 299 299 299 300 299 300 300 300 300 300 299 298 298 295 298 300 306 322 332 331 330 330 330 330 330 330 329
307 308 302 299 299 300 302 305 306 305 303 304 302 303 307 299 298 298 298 298 298 299 299 299 298 298 299 298 297 296 295 295 297 300 306 320 331 330 330 330 331 330 330 330
308 306 299 297 298 299 303 306 304 305 304 306 303 305 302 300 298 298 298 298 298 298 298 298 296 296 296 298 297 295 295 294 295 296 302 308 323 328 330 330 330 329 329 327
307 308 300 297 298 298 301 301 307 308 306 305 304 305 308 299 298 298 298 297 297 297 296 296 295 294 294 296 296 295 293 293 294 296 298 302 308 321 324 326 329 328 326 327
305 306 303 299 299 299 300 300 300 302 304 307 308 308 298 298 298 298 298 298 296 296 296 295 293 293 294 295 296 295 293 293 293 295 297 299 303 313 319 323 327 325 325 325
305 304 304 301 297 297 298 298 298 302 305 306 304 305 298 298 298 297 297 296 296 296 296 294 293 293 293 294 294 293 292 292 293 294 296 299 301 307 310 314 319 321 323 325
304 303 305 303 300 297 299 298 297 297 299 301 304 304 297 297 297 296 296 296 295 294 294 293 293 293 293 293 292 292 291 293 292 294 296 299 301 302 304 306 309 314 318 320
298 300 304 307 304 301 300 297 296 297 300 301 299 299 297 297 297 297 296 294 293 293 293 293 293 293 292 292 292 291 290 291 292 293 295 300 301 303 304 305 307 308 310 313
300 302 298 297 298 298 299 297 296 296 296 297 297 297 297 297 297 296 296 293 293 293 293 292 292 292 291 291 291 290 290 291 292 294 296 299 302 303 304 306 307 308 309 311
300 303 298 298 298 299 300 300 298 297 296 297 297 297 297 297 297 296 295 294 293 293 293 292 291 292 291 290 290 290 291 291 293 295 297 299 301 302 304 305 305 306 308 309
302 302 300 305 300 301 302 302 300 299 299 298 298 300 298 298 297 296 296 294 293 293 292 292 292 291 291 290 290 290 292 292 293 295 297 298 300 301 302 304 304 305 306 308
303 301 302 305 300 305 300 297 300 299 299 299 299 300 300 299 297 296 294 293 293 293 292 291 291 291 291 290 291 291 291 291 292 295 297 297 298 300 300 302 302 303 305 307
302 302 304 305 305 303 298 298 298 298 299 303 300 301 302 297 296 296 294 292 292 292 290 290 290 291 291 290 290 291 290 291 291 293 294 294 296 297 299 300 301 302 303 305
301 302 304 303 303 302 301 298 298 298 299 298 299 300 301 297 297 297 295 291 290 290 288 288 289 289 289 289 289 291 290 290 291 291 292 292 292 292 294 295 296 298 301 299
302 302 304 304 302 301 298 296 297 299 300 299 299 299 299 297 298 297 293 292 290 289 288 288 288 288 287 288 289 290 289 290 290 290 290 290 290 290 291 291 291 293 294 294
302 302 303 300 300 301 296 297 298 302 298 298 298 297 298 298 298 297 295 292 290 289 289 289 287 287 287 287 288 288 288 289 290 290 290 289 288 288 288 289 289 291 291 291
303 305 303 304 305 299 299 304 299 299 299 298 298 297 296 295 294 294 294 292 291 290 290 289 287 288 287 286 287 288 289 290 290 290 291 290 290 289 287 288 288 288 288 288
300 299 299 299 303 298 298 298 298 299 299 298 298 297 296 295 294 293 293 292 291 290 290 290 288 288 289 288 287 289 289 290 291 289 288 289 290 290 290 289 287 286 287 287
302 299 300 300 300 298 298 298 298 298 298 298 298 297 297 295 294 293 293 292 291 290 289 290 289 289 290 289 289 288 288 289 290 290 290 291 290 290 289 287 288 288 284 285
302 302 303 308 303 300 301 298 298 299 298 298 298 297 296 295 294 293 293 292 291 290 289 290 290 290 290 290 289 288 288 288 289 290 289 289 290 290 290 290 288 285 284 284
Wind_Speed
9 9 9 11 10 7 3 2 0 4 6 6 1 1 2 5 7 10 11 12 13 15 18 20 21 23 25 25 21 15 11 27 24 28 28 31 31 28 22 19 20 19 19 18
9 12 7 6 6 5 3 0 3 2 3 6 3 7 3 2 7 10 12 13 14 15 16 20 22 22 24 23 26 21 15 10 18 28 26 26 29 30 28 20 19 20 19 19
10 7 3 4 6 3 6 5 3 5 9 6 7 13 11 6 3 5 10 12 13 15 16 17 22 23 22 23 26 26 21 18 13 26 26 22 25 22 26 28 21 19 21 22
9 5 3 2 6 8 3 4 5 6 7 5 1 5 12 8 4 5 11 14 15 16 15 18 20 23 23 22 22 25 24 19 16 17 31 30 28 22 26 27 25 25 26 24
5 6 6 5 6 7 6 8 8 8 10 9 14 7 5 7 6 9 11 14 16 17 16 17 20 21 21 21 22 24 24 21 15 16 30 28 29 27 24 23 25 26 25 26
9 4 8 8 4 2 9 8 11 8 8 10 14 10 5 4 6 10 12 14 15 17 18 20 21 21 20 21 21 24 25 24 20 13 21 29 30 30 23 27 28 25 25 25
6 9 4 11 6 3 10 7 5 5 6 6 4 6 4 6 7 10 13 14 15 15 17 18 22 24 23 22 22 21 23 26 24 19 13 29 32 32 32 31 31 28 25 23
3 6 10 9 7 7 6 5 4 5 4 5 9 7 6 5 7 10 12 13 14 15 15 17 22 23 23 23 21 22 21 23 24 23 15 8 26 32 33 31 29 28 27 25
4 5 3 7 5 8 4 1 3 5 11 8 9 5 8 3 12 14 14 15 15 16 16 17 22 21 23 23 22 20 21 20 20 23 15 9 12 21 26 33 28 31 29 26
3 1 3 3 2 6 4 4 4 4 4 9 6 8 2 10 14 16 15 13 16 16 16 17 21 22 22 22 20 18 19 17 19 21 16 11 6 10 14 18 22 18 18 21
1 2 4 5 4 4 3 3 2 4 6 7 11 1 1 7 11 13 14 10 13 16 15 15 21 21 21 20 18 17 17 17 17 18 16 13 6 3 7 12 23 17 23 29
1 2 1 2 3 3 3 4 2 4 2 4 5 8 2 9 12 12 16 13 13 15 15 20 21 20 20 18 17 16 16 16 14 13 14 12 7 1 2 4 8 17 18 16
0 2 3 7 6 4 2 4 6 8 8 12 6 1 4 7 12 11 12 13 13 14 14 18 21 20 19 19 17 15 14 13 13 13 13 9 7 3 2 2 3 6 8 11
3 1 3 5 2 2 3 3 4 5 5 7 9 13 13 13 13 13 13 14 14 13 13 14 18 20 20 17 17 16 15 12 11 10 11 7 3 3 2 4 2 2 4 6
2 2 1 1 2 5 5 5 4 3 5 6 10 12 12 11 13 12 9 12 13 13 13 14 14 17 19 18 16 14 14 10 8 8 9 6 3 3 3 3 3 2 2 3
2 1 2 4 9 9 10 10 10 8 8 10 11 12 11 12 13 13 12 13 14 13 13 14 17 16 16 17 16 15 14 12 10 6 5 3 3 2 1 3 4 4 3 3
2 4 3 2 3 9 11 14 13 8 7 6 8 8 10 13 12 12 10 12 13 12 14 14 16 16 15 17 16 16 14 12 10 6 6 3 2 2 2 2 2 3 4 3
3 4 3 3 2 5 3 2 3 10 8 8 11 11 10 11 12 8 7 10 11 11 13 14 17 19 17 15 13 12 12 11 9 6 5 6 5 4 4 3 3 3 2 3
5 4 3 4 5 3 6 4 6 7 7 9 9 8 7 9 11 3 5 6 7 8 13 13 16 16 18 16 15 12 16 15 14 11 11 9 7 5 4 3 4 4 4 4
5 6 5 2 4 4 2 5 7 5 7 8 5 7 7 7 5 5 4 5 8 9 12 15 13 14 15 16 14 10 13 14 14 14 11 10 10 9 8 8 8 7 5 7
4 5 9 8 5 3 5 7 7 5 4 4 5 6 4 3 3 6 8 8 9 8 9 10 9 11 13 15 13 12 13 17 14 14 13 13 12 13 12 12 13 12 12 13
4 3 4 3 4 4 11 10 6 1 2 4 3 2 4 5 6 4 5 7 11 11 11 11 10 11 13 13 12 15 15 13 12 14 16 18 18 16 17 17 17 18 17 18
4 4 2 5 2 3 16 2 10 5 5 4 3 2 3 4 4 4 5 7 9 9 9 9 11 10 12 12 10 10 11 9 10 11 13 14 17 19 23 21 19 21 20 20
6 8 5 3 5 12 13 13 10 10 9 6 5 3 3 4 3 3 3 6 6 7 8 8 10 10 12 13 14 12 12 10 10 11 14 13 16 17 16 17 20 20 18 18
5 9 8 10 11 6 14 15 14 13 11 9 8 6 4 4 3 4 3 4 4 4 4 4 5 6 8 10 11 11 11 9 9 9 9 10 11 11 13 17 15 15 15 14
10 9 7 5 9 9 7 17 16 14 14 12 9 8 7 6 4 4 3 2 2 1 2 2 2 3 4 5 6 6 6 6 5 6 9 9 9 9 9 9 10 13 14 12
Wind_Direction
29 80 60 54 52 61 83 90 335 89 21 315 329 192 62 41 36 29 22 15 16 15 9 5 3 3 2 0 356 353 357 211 199 191 182 188 200 203 204 214 208 205 201 200
111 71 61 67 53 52 43 333 53 156 354 306 235 240 182 79 54 39 20 14 8 3 3 3 359 358 4 359 353 344 335 335 232 212 199 194 197 199 203 211 217 208 202 201
61 74 63 44 43 3 40 18 7 326 317 236 267 248 194 171 106 40 24 9 6 3 357 357 355 354 354 355 352 344 330 314 294 223 203 193 192 192 197 213 217 209 207 206
66 68 45 58 65 346 250 14 303 288 298 282 214 273 185 171 191 41 11 4 357 356 355 352 351 349 347 347 344 341 334 322 293 268 196 193 189 192 205 210 213 214 215 212
84 57 23 44 15 338 31 318 285 281 270 281 237 250 186 165 186 1 1 357 354 349 348 348 345 345 342 340 340 341 333 328 320 281 205 202 198 209 211 210 211 217 217 212
86 79 41 6 334 331 323 281 246 261 258 243 255 216 257 81 355 336 346 344 346 345 341 341 341 339 340 338 338 338 339 327 326 308 221 210 212 209 210 201 205 214 215 217
135 63 79 8 308 175 338 303 265 222 203 262 57 250 23 80 11 352 344 342 339 342 340 335 337 337 335 337 336 337 338 331 332 331 303 220 218 216 206 207 205 209 212 214
335 159 18 8 28 326 330 326 329 288 301 315 162 246 111 90 2 344 339 341 339 338 339 333 331 331 328 328 331 332 334 333 332 334 329 274 226 223 217 212 212 210 212 214
332 109 108 42 30 343 10 30 0 290 246 253 247 139 167 333 346 341 338 333 335 337 335 330 329 326 324 322 323 327 328 332 328 332 323 315 219 216 221 214 209 205 214 233
57 208 56 101 244 43 354 347 231 197 271 272 238 245 239 352 338 338 334 339 333 329 330 331 328 323 320 315 314 319 323 327 326 325 321 313 308 196 213 196 199 206 221 230
335 287 104 193 44 28 36 15 306 277 276 282 287 52 52 325 325 322 324 338 336 321 328 333 325 319 316 310 312 315 323 327 325 324 319 315 309 172 198 195 208 222 239 245
52 313 52 109 114 213 354 5 299 287 277 280 290 288 303 337 324 331 328 339 326 326 337 330 329 321 315 314 316 317 321 323 315 310 311 309 310 156 191 182 180 211 212 206
120 200 239 174 190 194 258 315 309 284 255 263 285 261 351 336 346 332 315 338 334 336 332 329 332 324 320 322 319 320 319 316 320 319 305 305 311 298 290 231 196 196 211 227
279 325 292 314 44 97 216 307 328 332 268 310 276 304 318 352 329 333 340 341 331 333 338 330 325 323 324 323 320 320 320 318 313 315 309 278 305 295 326 327 335 264 236 236
261 253 245 276 228 220 234 259 285 322 286 295 324 309 329 330 321 328 326 331 336 345 333 328 323 319 320 323 324 321 323 322 301 296 314 312 312 298 312 317 317 307 285 262
183 200 190 249 224 245 257 245 254 263 272 266 287 295 7 329 333 335 331 338 337 338 327 323 326 320 323 324 328 328 333 333 312 313 303 282 271 273 291 297 303 300 285 255
216 162 197 254 249 273 260 238 224 231 251 274 284 328 320 329 336 327 335 328 330 329 329 326 326 334 333 338 338 335 337 332 341 323 13 348 327 6 329 306 299 304 305 292
184 214 222 302 223 244 67 24 118 228 253 233 266 279 293 305 325 321 357 333 326 326 330 331 333 333 343 344 342 347 356 357 354 5 28 33 25 28 22 13 13 360 346 319
235 236 259 274 265 292 190 190 188 203 276 216 246 274 295 319 310 124 17 334 317 325 329 330 332 335 342 351 345 7 13 24 25 24 23 19 20 20 17 10 1 350 344 344
209 243 252 271 280 271 96 167 178 166 257 173 210 275 298 323 333 319 343 322 314 332 332 326 335 341 348 352 354 17 32 35 26 21 25 31 36 40 44 37 29 16 41 75
217 236 241 248 265 262 139 166 174 236 70 160 209 256 274 299 281 302 313 320 330 336 338 343 349 348 348 352 3 23 23 25 30 37 45 46 50 52 56 59 60 62 67 71
224 216 217 228 246 256 152 161 219 77 180 227 247 276 232 245 267 278 299 315 326 337 347 353 356 1 7 8 9 21 21 21 32 41 47 50 54 60 60 63 67 75 75 70
235 225 289 230 269 131 181 162 205 202 242 236 262 277 295 290 307 278 302 317 318 330 338 343 344 353 14 21 21 26 23 35 42 47 54 59 65 65 64 63 62 64 63 63
225 212 239 263 234 213 199 216 215 215 231 229 237 259 270 297 301 288 292 316 323 336 342 353 356 349 360 9 19 28 32 39 47 46 52 54 57 59 61 59 59 60 57 55
250 165 226 244 245 214 219 213 208 212 219 226 229 223 242 256 265 279 284 292 312 321 332 335 340 350 10 16 20 22 27 35 47 50 56 61 64 70 70 65 63 61 56 63
185 197 194 225 200 199 203 200 201 202 206 213 213 207 217 233 240 239 245 245 287 308 339 350 3 13 23 28 34 33 30 36 48 58 58 60 67 68 73 82 79 62 66 79